Home   Weather   Stans   Past weeks

Flag for Switzerland Past Weather in Stans, Nidwalden, Switzerland — Yesterday and Last 2 Weeks

Now
38 °F

Chilly.


Feels Like: 38 °F
Forecast: 31 / 68 °F
Wind: 2 mph from Northwest

Location: Giswil

Current Time: Apr 24, 2017 at 12:13:27 am

Latest Report: Apr 23, 2017 at 11:00 pm


Visibility: N/A

Pressure: 30.21 "Hg

Humidity: 93%

Dew Point: 36 °F

Location of StansLocation

Past Weather in Stans — Graph

°F

Stans Temperature Yesterday

Maximum temperature yesterday: 58 °F (at 5:00 pm)
Minimum temperature yesterday: 45 °F (at 8:00 am)
Average temperature yesterday: 51 °F

High & Low Weather Summary for the Past Weeks

 TemperatureHumidityPressure
High74 °F (Apr 10, 4:00 pm)100% (Apr 9, 6:00 am)30.59 "Hg (Apr 9, 6:00 am)
Low23 °F (Apr 21, 6:00 am)25% (Apr 21, 5:00 pm)29.89 "Hg (Apr 13, 5:00 pm)
Average47 °F76%30.22 "Hg
* Reported Apr 8 10:00 pm — Apr 23 10:00 pm, Stans, Weather by CustomWeather, © 2017

Note: Actual official high and low records may vary slightly from our data, if they occured in-between our weather recording intervals... More about our weather records

Advertising

Stans Weather History for the Previous 24 Hours

Scroll right to see more
 ConditionsComfort  
Time TempWeatherWind HumidityBarometerVisibility
10:00 pm
Sun, Apr 23
45 °FCool.2 mph72%30.19 "HgN/A
9:00 pm53 °FCool.1 mph57%30.15 "HgN/A
8:00 pm55 °FRefreshingly cool.3 mph52%30.13 "HgN/A
7:00 pm56 °FRefreshingly cool.5 mph49%30.13 "HgN/A
6:00 pm58 °FRefreshingly cool.5 mph49%30.12 "HgN/A
5:00 pm58 °FRefreshingly cool.5 mph48%30.12 "HgN/A
4:00 pm58 °FRefreshingly cool.5 mph48%30.13 "HgN/A
3:00 pm56 °FRefreshingly cool.5 mph50%30.16 "HgN/A
2:00 pm53 °FCool.2 mph49%30.19 "HgN/A
1:00 pm50 °FCool.2 mph53%30.22 "HgN/A
12:00 pm49 °FCool.1 mph53%30.24 "HgN/A
11:00 am47 °FCool.1 mph57%30.25 "HgN/A
10:00 am47 °FCool.2 mph60%30.25 "HgN/A
9:00 am46 °FCool.2 mph74%30.25 "HgN/A
8:00 am45 °FCool.1 mph78%30.25 "HgN/A
7:00 am46 °FCool.5 mph75%30.23 "HgN/A
6:00 am47 °FCool.6 mph81%30.21 "HgN/A
5:00 am48 °FCool.6 mph80%30.20 "HgN/A
4:00 am51 °FCool.3 mph65%30.19 "HgN/A
3:00 am48 °FCool.1 mph78%30.20 "HgN/A
2:00 am51 °FCool.1 mph64%30.21 "HgN/A
1:00 am52 °FCool.2 mph59%30.21 "HgN/A
12:00 am52 °FCool.5 mph58%30.21 "HgN/A
Weather by CustomWeather, © 2017

See weather overviewHow to use our weather pages